Weather History for Lake Charles, LA

Change the Weather History Date:

Wednesday, April 24, 2013

  Actual Average Record
Temperature  
Mean Temperature 62 °F -  
Max Temperature 72 °F 80 °F 87 °F (2002)
Min Temperature 53 °F 64 °F 48 °F (2012)
Degree Days  
Heating Degree Days 2    
Growing Degree Days 12 (Base 50)    
Moisture  
Dew Point 59 °F    
Average Humidity 83    
Maximum Humidity 94    
Minimum Humidity 56    
Precipitation  
Precipitation 0.00 in - - ()
Sea Level Pressure  
Sea Level Pressure 30.07 in    
Wind  
Wind Speed 11 mph (NE)    
Max Wind Speed 28 mph    
Max Gust Speed 36 mph    
Visibility 9 miles    
Events Rain , Thunderstorm    
Averages and records for this station are not official NWS values.
T = Trace of Precipitation, MM = Missing Value Source: NWS Daily Summary

Daily Weather History Graph

Daily Weather History Graph

Search for Another Location

Airport:

Trip Planner

Search our weather history database for the weather conditions in past years. The results will help you decide how hot, cold, wet, or windy it might be!

Date:

Astronomy

Apr. 24, 2013 Rise Set
Actual Time 6:35 AM CDT 7:45 PM CDT
Civil Twilight 6:10 AM CDT 8:11 PM CDT
Nautical Twilight 5:41 AM CDT 8:40 PM CDT
Astronomical Twilight 5:10 AM CDT 9:11 PM CDT
Moon 6:52 PM CDT (4/24) 5:35 AM CDT (4/24)
Length of Visible Light 14h 00m
Length of Day
13h 10m
Waxing Gibbous, 98% of the Moon is Illuminated
Apr 24
Waxing Gibbous
Apr 25
Full
May 2
Last Quarter
May 9
New
May 17
First Quarter

Hourly Weather History & Observations

Time (CDT) Temp. Dew Point Humidity Pressure Visibility Wind Dir Wind Speed Gust Speed Precip Events Conditions
12:15 AM 72.7 °F 69.1 °F 88% 30.00 in 10.0 mi South 6.9 mph - N/A   Overcast
12:35 AM 72.7 °F 68.9 °F 88% 30.01 in 10.0 mi South 6.9 mph - N/A   Overcast
1:15 AM 72.7 °F 68.9 °F 88% 30.01 in 10.0 mi SSE 8.1 mph - N/A   Overcast
1:35 AM 72.5 °F 68.9 °F 88% 30.01 in 10.0 mi South 6.9 mph - N/A   Overcast
1:55 AM 72.5 °F 68.9 °F 88% 30.01 in 10.0 mi South 8.1 mph - N/A   Overcast
2:15 AM 72.1 °F 68.9 °F 89% 30.00 in 10.0 mi SSE 8.1 mph - N/A   Overcast
2:35 AM 72.0 °F 68.9 °F 90% 30.00 in 10.0 mi SSE 6.9 mph - N/A   Overcast
2:55 AM 72.0 °F 68.7 °F 89% 29.99 in 10.0 mi SSE 6.9 mph - N/A   Overcast
3:15 AM 71.6 °F 68.5 °F 90% 29.99 in 10.0 mi SSE 6.9 mph - N/A   Overcast
3:35 AM 71.6 °F 68.5 °F 90% 29.99 in 10.0 mi SSE 9.2 mph - N/A   Overcast
3:55 AM 71.8 °F 68.9 °F 91% 29.98 in 10.0 mi SSE 8.1 mph - N/A   Overcast
4:15 AM 71.6 °F 68.5 °F 90% 29.97 in 10.0 mi SSE 10.4 mph - N/A   Overcast
4:35 AM 71.6 °F 68.4 °F 89% 29.95 in 10.0 mi SSE 15.0 mph - N/A Thunderstorm Overcast
4:55 AM 71.8 °F 68.5 °F 89% 29.95 in 10.0 mi SSE 15.0 mph 19.6 mph N/A Thunderstorm Overcast
5:15 AM 71.8 °F 68.5 °F 89% 29.93 in 10.0 mi SSE 17.3 mph - N/A Thunderstorm Overcast
5:35 AM 72.1 °F 68.9 °F 89% 29.93 in 10.0 mi South 18.4 mph 24.2 mph N/A Thunderstorm Overcast
5:55 AM 71.4 °F 67.1 °F 86% 29.99 in 7.0 mi WNW 27.6 mph 35.7 mph N/A Rain , Thunderstorm Thunderstorms and Rain
6:00 AM 68.0 °F 64.4 °F 88% 29.99 in 4.0 mi West 20.7 mph 35.7 mph N/A Rain , Thunderstorm Light Thunderstorms and Rain
6:15 AM 61.7 °F 59.2 °F 91% 30.01 in 4.0 mi WNW 19.6 mph 29.9 mph N/A Rain Heavy Rain
6:35 AM 59.7 °F 57.6 °F 93% 30.03 in 7.0 mi NW 25.3 mph 32.2 mph N/A Rain , Thunderstorm Light Thunderstorms and Rain
6:55 AM 57.2 °F 55.2 °F 93% 30.05 in 10.0 mi NW 18.4 mph 23.0 mph N/A Thunderstorm Overcast
7:50 AM 53.6 °F 51.8 °F 94% 30.11 in 4.0 mi NW 11.5 mph 17.3 mph N/A Rain , Thunderstorm Light Thunderstorms and Rain
8:55 AM 53.6 °F 51.8 °F 94% 30.13 in 10.0 mi NNW 13.8 mph 19.6 mph N/A Thunderstorm Thunderstorm
9:50 AM 53.6 °F 51.8 °F 94% 30.14 in 10.0 mi North 16.1 mph 19.6 mph N/A   Mostly Cloudy
10:45 AM 53.6 °F 50.0 °F 88% 30.16 in 10.0 mi North 12.7 mph - N/A   Overcast
11:58 AM 57.2 °F 51.8 °F 82% 30.18 in 10.0 mi NNW 13.8 mph 18.4 mph N/A   Overcast
12:55 PM 59.0 °F 50.0 °F 72% 30.16 in 10.0 mi North 15.0 mph 20.7 mph N/A   Mostly Cloudy
1:45 PM 60.8 °F 50.0 °F 68% 30.16 in 10.0 mi NNE 15.0 mph 20.7 mph N/A   Mostly Cloudy
2:48 PM 62.6 °F 51.8 °F 68% 30.15 in 10.0 mi North 12.7 mph 18.4 mph N/A   Scattered Clouds
3:49 PM 64.4 °F 51.8 °F 64% 30.12 in 10.0 mi North 12.7 mph 18.4 mph N/A   Clear
4:47 PM 66.2 °F 50.0 °F 56% 30.13 in 10.0 mi NNE 9.2 mph 16.1 mph N/A   Clear
5:50 PM 66.2 °F 51.8 °F 60% 30.13 in 10.0 mi NNE 11.5 mph - N/A   Mostly Cloudy
6:49 PM 64.4 °F 50.0 °F 59% 30.15 in 10.0 mi NNE 8.1 mph - N/A   Scattered Clouds
7:50 PM 60.8 °F 50.0 °F 68% 30.18 in 10.0 mi NNE 5.8 mph - N/A   Scattered Clouds
8:51 PM 60.8 °F 51.8 °F 72% 30.20 in 10.0 mi NNE 4.6 mph - N/A   Scattered Clouds
9:50 PM 57.2 °F 51.8 °F 82% 30.21 in 10.0 mi NNE 6.9 mph - N/A   Scattered Clouds
11:15 PM 56.3 °F 50.0 °F 79% 30.24 in 10.0 mi NE 5.8 mph - N/A   Scattered Clouds
11:35 PM 56.3 °F 49.6 °F 78% 30.23 in 10.0 mi NNE 8.1 mph - N/A   Scattered Clouds
11:55 PM 55.8 °F 49.3 °F 79% 30.23 in 10.0 mi NE 8.1 mph - N/A   Mostly Cloudy